• în România
  • Lista ţărilor
  • Pe 7 zile
  • Temperatura apei
  • Hartă satelitară
  • Meteo pe hartă
  • Widget-uri
  • user-avatar
    Intrare

    Meteo pe oră la Ganja

    Astăzi, 23 Februarie, Joi

    Timp Temperatura Precipitaţii Vânt Presiune Umiditate
    00:00 +2°C° 0 mm 3 m/s 724 mmHg 64%
    01:00 +2°C° 0 mm 3 m/s 724 mmHg 65%
    02:00 +2°C° 0 mm 3 m/s 724 mmHg 65%
    03:00 +3°C° 0 mm 4 m/s 723 mmHg 66%
    04:00 +3°C° 0,1 mm 4 m/s 723 mmHg 70%
    05:00 +3°C° 0,1 mm 4 m/s 724 mmHg 74%
    06:00 +3°C° 0,1 mm 4 m/s 724 mmHg 79%
    07:00 +4°C° 0 mm 4 m/s 725 mmHg 76%
    08:00 +5°C° 0 mm 4 m/s 725 mmHg 73%
    09:00 +6°C° 0 mm 5 m/s 725 mmHg 70%
    10:00 +6°C° 0 mm 5 m/s 725 mmHg 66%
    11:00 +7°C° 0 mm 5 m/s 726 mmHg 62%
    12:00 +8°C° 0 mm 5 m/s 726 mmHg 57%
    13:00 +8°C° 0 mm 5 m/s 726 mmHg 56%
    14:00 +8°C° 0 mm 5 m/s 726 mmHg 54%
    15:00 +10°C° 0 mm 4 m/s 725 mmHg 53%
    16:00 +7°C° 0 mm 4 m/s 726 mmHg 57%
    17:00 +5°C° 0 mm 3 m/s 726 mmHg 61%
    18:00 +4°C° 0 mm 2 m/s 726 mmHg 65%
    19:00 +4°C° 0 mm 2 m/s 727 mmHg 65%
    20:00 +3°C° 0 mm 3 m/s 727 mmHg 65%
    21:00 +2°C° 0 mm 3 m/s 727 mmHg 64%
    22:00 +2°C° 0 mm 3 m/s 727 mmHg 65%
    23:00 +2°C° 0 mm 3 m/s 727 mmHg 65%

    Mâine, 24 Februarie, Vineri

    Timp Temperatura Precipitaţii Vânt Presiune Umiditate
    00:00 +2°C° 0 mm 3 m/s 727 mmHg 65%
    01:00 +2°C° 0 mm 3 m/s 727 mmHg 66%
    02:00 +2°C° 0 mm 3 m/s 727 mmHg 66%
    03:00 +1°C° 0 mm 4 m/s 727 mmHg 67%
    04:00 +1°C° 0 mm 4 m/s 727 mmHg 67%
    05:00 +1°C° 0 mm 4 m/s 727 mmHg 67%
    06:00 +1°C° 0 mm 4 m/s 727 mmHg 68%
    07:00 +3°C° 0 mm 4 m/s 728 mmHg 64%
    08:00 +5°C° 0 mm 4 m/s 728 mmHg 61%
    09:00 +6°C° 0 mm 4 m/s 728 mmHg 58%
    10:00 +8°C° 0 mm 4 m/s 728 mmHg 56%
    11:00 +10°C° 0 mm 4 m/s 728 mmHg 55%
    12:00 +12°C° 0 mm 4 m/s 728 mmHg 53%
    13:00 +12°C° 0 mm 4 m/s 728 mmHg 53%
    14:00 +12°C° 0 mm 3 m/s 728 mmHg 53%
    15:00 +13°C° 0 mm 3 m/s 728 mmHg 54%
    16:00 +12°C° 0 mm 2 m/s 728 mmHg 59%
    17:00 +9°C° 0 mm 2 m/s 728 mmHg 65%
    18:00 +7°C° 0 mm 1 m/s 729 mmHg 70%
    19:00 +7°C° 0 mm 1 m/s 729 mmHg 70%
    20:00 +7°C° 0 mm 1 m/s 730 mmHg 70%
    21:00 +7°C° 0 mm 1 m/s 730 mmHg 69%
    22:00 +7°C° 0 mm 1 m/s 730 mmHg 70%
    23:00 +6°C° 0 mm 1 m/s 731 mmHg 70%

    Poimâine, 25 Februarie, Sâmbătă

    Timp Temperatura Precipitaţii Vânt Presiune Umiditate
    00:00 +6°C° 0 mm 1 m/s 731 mmHg 70%
    01:00 +6°C° 0 mm 1 m/s 731 mmHg 70%
    02:00 +5°C° 0 mm 2 m/s 731 mmHg 69%
    03:00 +5°C° 0 mm 2 m/s 730 mmHg 68%
    04:00 +5°C° 0 mm 2 m/s 730 mmHg 67%
    05:00 +5°C° 0 mm 2 m/s 730 mmHg 66%
    06:00 +4°C° 0 mm 3 m/s 730 mmHg 65%
    07:00 +5°C° 0 mm 3 m/s 730 mmHg 62%
    08:00 +8°C° 0 mm 3 m/s 730 mmHg 59%
    09:00 +10°C° 0 mm 2 m/s 730 mmHg 56%
    10:00 +12°C° 0 mm 2 m/s 730 mmHg 54%
    11:00 +13°C° 0 mm 2 m/s 729 mmHg 51%
    12:00 +14°C° 0 mm 2 m/s 729 mmHg 49%
    13:00 +15°C° 0 mm 2 m/s 728 mmHg 49%
    14:00 +15°C° 0 mm 2 m/s 728 mmHg 49%
    15:00 +15°C° 0 mm 2 m/s 728 mmHg 49%
    16:00 +13°C° 0 mm 2 m/s 728 mmHg 54%
    17:00 +10°C° 0 mm 2 m/s 728 mmHg 58%
    18:00 +8°C° 0 mm 2 m/s 728 mmHg 63%
    19:00 +8°C° 0 mm 2 m/s 728 mmHg 62%
    20:00 +8°C° 0 mm 2 m/s 728 mmHg 62%
    21:00 +7°C° 0 mm 2 m/s 728 mmHg 61%
    22:00 +7°C° 0 mm 3 m/s 728 mmHg 59%
    23:00 +7°C° 0 mm 3 m/s 728 mmHg 58%

    26 Februarie, Duminică

    Timp Temperatura Precipitaţii Vânt Presiune Umiditate
    00:00 +5°C° 0 mm 3 m/s 728 mmHg 56%
    01:00 +5°C° 0 mm 3 m/s 727 mmHg 56%
    02:00 +5°C° 0 mm 4 m/s 727 mmHg 56%
    03:00 +5°C° 0 mm 4 m/s 726 mmHg 56%
    04:00 +5°C° 0 mm 4 m/s 726 mmHg 57%
    05:00 +4°C° 0 mm 4 m/s 726 mmHg 57%
    06:00 +4°C° 0 mm 4 m/s 726 mmHg 58%
    07:00 +6°C° 0 mm 4 m/s 726 mmHg 55%
    08:00 +8°C° 0 mm 4 m/s 726 mmHg 52%
    09:00 +10°C° 0 mm 4 m/s 726 mmHg 49%
    10:00 +12°C° 0 mm 4 m/s 726 mmHg 47%
    11:00 +13°C° 0 mm 5 m/s 725 mmHg 44%
    12:00 +15°C° 0 mm 5 m/s 725 mmHg 42%
    13:00 +15°C° 0 mm 5 m/s 725 mmHg 43%
    14:00 +15°C° 0 mm 5 m/s 725 mmHg 44%
    15:00 +15°C° 0 mm 5 m/s 725 mmHg 45%
    16:00 +13°C° 0 mm 4 m/s 725 mmHg 51%
    17:00 +11°C° 0 mm 3 m/s 726 mmHg 56%
    18:00 +9°C° 0 mm 2 m/s 726 mmHg 62%
    19:00 +9°C° 0 mm 2 m/s 727 mmHg 64%
    20:00 +9°C° 0 mm 1 m/s 728 mmHg 65%
    21:00 +9°C° 0 mm 1 m/s 729 mmHg 67%
    22:00 +8°C° 0 mm 1 m/s 729 mmHg 70%
    23:00 +7°C° 0 mm 2 m/s 729 mmHg 72%

    27 Februarie, Luni

    Timp Temperatura Precipitaţii Vânt Presiune Umiditate
    00:00 +5°C° 0 mm 3 m/s 730 mmHg 75%
    01:00 +5°C° 0 mm 3 m/s 730 mmHg 78%
    02:00 +4°C° 0 mm 4 m/s 730 mmHg 80%
    03:00 +3°C° 0 mm 4 m/s 730 mmHg 82%
    04:00 +3°C° 0 mm 4 m/s 731 mmHg 82%
    05:00 +3°C° 0 mm 4 m/s 731 mmHg 82%
    06:00 +1°C° 0 mm 4 m/s 731 mmHg 82%
    07:00 +3°C° 0 mm 3 m/s 731 mmHg 79%
    08:00 +3°C° 0 mm 3 m/s 732 mmHg 77%
    09:00 +4°C° 0 mm 3 m/s 732 mmHg 74%
    10:00 +5°C° 0 mm 3 m/s 731 mmHg 71%
    11:00 +7°C° 0 mm 3 m/s 731 mmHg 68%
    12:00 +7°C° 0 mm 2 m/s 730 mmHg 66%
    13:00 +8°C° 0 mm 2 m/s 730 mmHg 65%
    14:00 +8°C° 0 mm 2 m/s 729 mmHg 64%
    15:00 +9°C° 0 mm 2 m/s 729 mmHg 63%
    16:00 +8°C° 0 mm 1 m/s 729 mmHg 68%
    17:00 +7°C° 0 mm 1 m/s 729 mmHg 72%
    18:00 +6°C° 0 mm 1 m/s 729 mmHg 76%
    19:00 +6°C° 0 mm 1 m/s 729 mmHg 78%
    20:00 +5°C° 0 mm 1 m/s 729 mmHg 80%
    21:00 +5°C° 0 mm 1 m/s 729 mmHg 81%
    22:00 +4°C° 0 mm 0 m/s 729 mmHg 82%
    23:00 +3°C° 0 mm 0 m/s 728 mmHg 84%

    28 Februarie, Marţi

    Timp Temperatura Precipitaţii Vânt Presiune Umiditate
    00:00 +3°C° 0 mm 0 m/s 728 mmHg 85%
    01:00 +3°C° 0 mm 0 m/s 728 mmHg 85%
    02:00 +4°C° 0 mm 1 m/s 728 mmHg 85%
    03:00 +4°C° 0 mm 1 m/s 728 mmHg 84%
    04:00 +4°C° 0 mm 1 m/s 728 mmHg 84%
    05:00 +4°C° 0 mm 1 m/s 728 mmHg 83%
    06:00 +4°C° 0 mm 1 m/s 728 mmHg 82%
    07:00 +6°C° 0 mm 1 m/s 728 mmHg 75%
    08:00 +8°C° 0 mm 1 m/s 728 mmHg 69%
    09:00 +9°C° 0 mm 1 m/s 729 mmHg 62%
    10:00 +11°C° 0 mm 1 m/s 729 mmHg 59%
    11:00 +12°C° 0 mm 1 m/s 728 mmHg 56%
    12:00 +13°C° 0 mm 1 m/s 728 mmHg 52%
    13:00 +13°C° 0 mm 1 m/s 728 mmHg 53%
    14:00 +14°C° 0 mm 1 m/s 728 mmHg 53%
    15:00 +14°C° 0 mm 1 m/s 728 mmHg 53%
    16:00 +13°C° 0 mm 1 m/s 728 mmHg 58%
    17:00 +11°C° 0 mm 1 m/s 728 mmHg 63%
    18:00 +9°C° 0 mm 2 m/s 729 mmHg 68%
    19:00 +8°C° 0 mm 2 m/s 729 mmHg 70%
    20:00 +8°C° 0 mm 2 m/s 730 mmHg 72%
    21:00 +7°C° 0 mm 2 m/s 730 mmHg 75%
    22:00 +7°C° 0 mm 2 m/s 730 mmHg 77%
    23:00 +6°C° 0 mm 2 m/s 730 mmHg 79%
    Arată mai mult